Regional Weather Roundup
Issued by NWS

Home | Current Version | Previous Version | Text Only | Print | Product List | Glossary Off
Versions: 1 2 3 4 5 6 7 8 9 10 11 12 13 14 15 16 17 18 19 20 21 22 23 24 25 26 27 28 29 30 31 32 33 34 35 36 37 38 39 40 41 42 43 44 45 46 47 48 49 50

000
ASUS45 KSLC 011010
RWRUT

UTAH REGIONAL WEATHER ROUNDUP
NATIONAL WEATHER SERVICE SALT LAKE CITY UT
400 AM MDT WED OCT 01 2014

UTZ001>011-023>025-011100-

NORTHERN UTAH

CITY           SKY/WX    TMP DP  RH WIND       PRES   REMARKS
HILL AFB       MOCLDY    46  32  57 NW6       29.97F
LOGAN          NOT AVBL
OGDEN          MOCLDY    45  36  70 W5        29.96F
PROVO AIRPORT  CLOUDY    48  45  87 N14G23    29.96S
SALT LAKE CITY MOCLDY    49  38  65 W8        29.97S
VERNAL         CLOUDY    48  40  73 E3        29.93F
WENDOVER       CLEAR     48  30  49 NW15      30.02S
HEBER CITY     MOCLDY    45  41  87 CALM      29.97F
WEST JORDAN    PTCLDY    46  39  76 W9        29.98F

$$

UTZ012>022-026-027-011100-

SOUTHERN UTAH

CITY           SKY/WX    TMP DP  RH WIND       PRES   REMARKS
BRYCE CANYON   PTCLDY    35  32  88 NW6       30.01F WCI  30
CEDAR CITY     CLOUDY    48  43  82 S5        29.96S
MILFORD        MOCLDY    50  46  86 NW14      29.97R
MOAB/CYNLANDS  CLOUDY    54  45  71 NW17G24   29.88R
PRICE          CLOUDY    45  42  89 S8        29.95S
ST GEORGE      PTSUNNY   61  39  44 CALM      29.84S
KANAB            N/A     45  43  93 NE3       29.95F

$$

REGIONAL REPORTS     COLORADO/ARIZONA

CITY           SKY/WX    TMP DP  RH WIND       PRES   REMARKS
CRAIG, CO      CLOUDY    44  40  85 SE7       29.96F
GRAND JUNCTION MOCLDY    48  42  80 E10       29.88F
RIFLE          LGT RAIN  44  41  89 NW3       29.95F
MONTROSE       CLOUDY    47  41  80 E3        29.98S
CORTEZ         CLEAR     40  38  93 CALM      29.95F
PAGE, AZ       NOT AVBL
GRAND CANYON   PTCLDY    34  33  96 CALM      30.01F FOG
KINGMAN        CLEAR     58  42  55 SE9       29.85F
FLAGSTAFF      CLEAR     40  34  79 CALM      30.04F

$$

REGIONAL REPORTS    NEVADA/IDAHO/WYOMING

CITY           SKY/WX    TMP DP  RH WIND       PRES   REMARKS
LAS VEGAS, NV  CLEAR     69  35  28 S12       29.73F
ELY            PTCLDY    42  37  82 NW7       30.05S
ELKO           CLEAR     31  27  85 CALM      30.07S
POCATELLO, ID  MOCLDY    43  36  76 SW9       29.99S
BURLEY         MOCLDY    42  35  76 W7        29.98S
EVANSTON, WY   PTCLDY    35  34  96 SW3       29.98F
ROCK SPRINGS   MOCLDY    37  34  89 W12       29.97S WCI  29

$$



USA.gov is the U.S. government's official web portal to all federal, state and local government web resources and services.